SL-16 DEB, 24284

Orbit data source: Space-Track

SL-16 DEB, 24284 is space debris in LEO originally from a launch on Tue, 31 Oct 1995 UTC launched from the Tyuratam Missile And Space Complex (TTMTR). Debris objects in space refer to the collection of defunct objects orbiting the Earth. Examples of debris include non-operational satellites, rocket bodies, and fragments generated from explosions, collisions, or faulty payload assembly.

Loading next visibility...
Identifier
24284, 1995-058G
Orbit
LEO
Last TLE update
14 hours ago
Origin
Manufacturer
Unknown
Mission
Spacecraft
Bus & Motor
Unknown
Mass
Unknown
Launch date (UTC)
1995-10-31 (30 years ago)
Launch vehicle
Unknown
Launch site
Tyuratam Missile And Space Complex (TTMTR)
Object type
Payload
Rocket body
Debris
Shape & HBR
Unknown
Radar Cross Section
Small (<0.1 m²)

Expand to show TLE details & history

TLE from 14 hours ago
0 SL-16 DEB
1 24284U 95058G   25186.78774895  .00000067  00000-0  54267-4 0  9995
2 24284  70.8628  60.2513 0013961 292.3723  67.5922 14.20278530534553
Epoch: 2025-07-05T18:54Z
TLE epoch observation values (Epoch: 2025-07-05T18:54:21.509Z)
Latitude
0.00002°
Longitude
-147.35909°
Altitude
822.986 km
Speed
7.444 km/s
True Right ascension
04h 01m 00s
True Declination
0° 00' 00"
Sunlit
Object was in daylight at epoch
Visualization orbit readout
Latitude
70.84637°
Longitude
-64.98066°
Altitude
845.306 km
Speed
7.432 km/s
Apparent Right ascension
09h 02m 06s
Apparent Declination
20° 38' 30"
Sunlit
Object is in daylight
Visualization observer readout
Local Sidereal Time
20:48:21
Azimuth
356.308° N
Elevation
-29.357°
Doppler factor
1
Orbital elements
Apogee altitude
832.397 km
Perigee altitude
812.292 km
Semi-major axis
7,200.481 km
Eccentricity
0.0014
Inclination
70.8628°
RAAN
60.2513°
Arg. of periapsis
292.3723°
True anomaly
Unknown
Mean anomaly
67.5922°
Eccentric anomaly
Unknown
Mean motion
3.55223 °/min
Orbital period
101.34 mins
BSTAR
0.000054267
Loading maneuver chart data...
Loading SW <> Apogee altitude chart data...
Loading historical data...
Loading historical data...
Loading historical data...
Loading historical data...
Loading historical data...
Loading historical data...
Loading historical data...

SL-16 DEB Visibility forecast

Observer location: undefined°, undefined°

Span
Click to sort rows by Start time (UTC) header in descending order
Start Az.
Max El. time (UTC)
Max El. Az.
Max El.
End time (UTC)
End Az.
9 mins2025-07-06 17:00:27.720Z204.666° SW2025-07-06 17:04:27.720Z226.022° WSW44.149°2025-07-06 17:09:27.720Z21.576° NNE
9 mins2025-07-07 01:53:27.720Z356.887° N2025-07-07 01:57:27.720Z58.599° ENE32.49°2025-07-07 02:02:27.720Z127.879° SE
8 mins2025-07-07 03:37:27.720Z305.92° NW2025-07-07 03:41:27.720Z248.293° W24.629°2025-07-07 03:45:27.720Z201.42° SSW
|